Location: Knowlton
(51.2333°N, 1.2667°E)
Time: 10:16:13
(UTC+00:00)

USA 229 DEB - Pass Details

Date: 18 April 2021
Orbit: 960 x 1252 km, 63.4° (Epoch: 23 April)

Event Time Altitude Azimuth Distance (km) Brightness Sun altitude
Rises 23:22:58 0° 315° (NW) 3,951 7.4 -27.2°
Reaches altitude 10° 23:25:37 10° 311° (NW) 3,030 6.7 -27.3°
Maximum altitude 23:32:42 57° 236° (SW) 1,379 4.0 -27.4°
Enters shadow 23:33:33 54° 211° (SSW) 1,421 4.0 -27.4°
